Location: Marcé
(47.5801°N, 0.3280°W)
Time: 00:51:16
(UTC+01:00)

Explorer 11/Cluster Stage 4 - Visible Passes

Search period start: 30 November 2021 00:00
Search period end: 10 December 2021 00:00
Orbit: 467 x 1255 km, 28.8° (Epoch: 29 November)

Date Brightness Start Highest point End Pass type
(mag) Time Alt. Az. Time Alt. Az. Time Alt. Az.
30 Nov 9.3 05:11:43 15° S 05:13:54 17° SSE 05:18:37 10° SE visible
30 Nov 9.4 06:56:27 10° SW 07:01:45 19° S 07:07:04 10° SE visible
01 Dec 9.2 05:01:12 17° S 05:02:14 17° SSE 05:07:03 10° SE visible
01 Dec 9.3 06:44:54 10° SW 06:50:05 19° S 06:55:20 10° SE visible
02 Dec 9.2 04:50:39 17° S 04:50:39 17° S 04:55:25 10° SE visible
02 Dec 9.3 06:33:27 10° SW 06:38:26 18° S 06:43:32 10° SSE visible
03 Dec 9.3 04:40:04 17° SSE 04:40:04 17° SSE 04:43:42 10° SE visible
03 Dec 9.3 06:22:10 10° SW 06:26:46 17° S 06:31:39 10° SSE visible
04 Dec 9.4 04:29:27 15° SSE 04:29:27 15° SSE 04:31:56 10° SE visible
04 Dec 9.2 06:11:34 12° SW 06:15:08 16° S 06:19:41 10° SSE visible
05 Dec 9.5 04:18:52 13° SSE 04:18:52 13° SSE 04:20:07 10° SE visible
05 Dec 9.2 06:00:57 13° SSW 06:03:30 15° S 06:07:36 10° SSE visible
06 Dec 9.2 05:50:21 13° SSW 05:51:52 14° SSW 05:55:23 10° SSE visible
07 Dec 9.3 05:39:46 12° SSW 05:40:15 12° SSW 05:42:55 10° S visible
08 Dec 9.4 05:29:11 10° S 05:29:11 10° S 05:29:48 10° S visible
